SCP
3 3 2 2 2 2 2 2 2 2 2 1 1 1 1 1 1 1 1 1 1 1 1 1 1 1 1 1 1 1 1 1 1 1 1 1 1 1 1 1 1 1 1
4 3 2 2 2 2 2 2 2 2 2 1 1 1 1 1 1 1 1 1 1 1 1 1 1 1 1 1 1 1 1 1 1 1 1 1 1 1 1 1 1 1 1
4 4 3 2 2 2 2 2 2 2 2 1 1 1 1 1 1 1 1 1 1 1 1 1 1 1 1 1 1 1 1 1 1 1 1 1 1 1 1 1 1 1 1
4 4 3 3 2 2 2 2 2 2 1 1 1 1 1 1 1 1 1 1 1 1 1 1 1 1 1 1 1 1 1 1 1 1 1 1 1 1 1 1 1 2 2
4 3 2 2 2 2 2 2 2 2 1 1 1 1 1 1 1 1 1 1 0 0 0 1 1 1 1 1 1 1 1 1 1 1 2 2 1 1 1 1 1 2 2
3 2 1 1 2 2 1 1 1 1 1 1 1 1 1 1 1 1 1 1 0 0 0 0 1 1 1 1 1 1 1 1 1 1 2 2 2 1 1 1 1 1 2
1 1 1 1 1 1 1 1 1 1 1 1 1 1 0 0 0 1 1 1 1 0 0 0 1 1 1 1 1 1 1 1 1 1 2 2 2 1 1 1 1 1 1
1 1 1 1 1 1 1 1 1 1 1 1 1 0 0 0 0 1 1 1 1 0 0 0 1 1 1 1 1 1 1 1 1 2 2 2 2 2 1 1 1 1 1
1 1 1 1 1 1 1 1 1 1 0 0 0 0 0 0 0 0 1 1 0 0 0 0 1 1 1 1 1 1 1 1 2 2 2 2 2 2 1 1 1 1 1
1 1 1 1 1 0 0 0 1 1 0 0 0 0 0 0 0 0 0 0 0 0 0 0 0 1 1 1 1 1 1 1 1 1 2 2 2 2 2 1 1 1 2
1 1 1 1 1 0 0 0 0 0 0 0 0 0 0 0 0 0 0 0 0 0 0 0 0 0 1 0 0 0 1 1 1 1 1 2 2 2 2 2 2 2 2
1 1 1 1 1 1 0 0 0 0 0 0 0 0 0 0 0 0 0 0 0 0 0 0 0 0 0 0 0 0 0 0 0 1 1 1 1 2 2 2 2 2 2
1 1 1 1 1 1 0 0 0 0 0 0 0 0 0 0 0 0 0 0 0 0 0 0 0 0 0 0 0 0 0 0 0 0 0 1 1 1 1 2 2 2 2
1 1 1 1 1 1 1 0 0 0 0 0 0 0 0 0 0 0 0 0 0 0 0 0 0 0 0 0 0 0 0 0 0 0 0 0 1 1 1 1 1 1 1
2 2 1 1 1 1 1 1 1 1 0 0 0 0 0 0 0 0 0 0 0 0 0 0 0 0 0 0 0 0 0 0 0 0 0 0 0 0 0 1 1 1 1
1 1 1 1 1 1 1 1 1 1 1 1 1 1 0 0 0 0 0 0 0 0 0 0 0 0 0 0 0 0 0 0 0 0 0 0 0 0 0 0 0 0 0
1 1 1 1 1 1 1 1 1 1 1 1 1 1 1 1 1 0 0 0 0 0 0 0 0 0 0 0 0 0 0 0 0 0 0 0 0 0 0 0 0 0 0
0 0 1 1 1 1 1 1 1 1 1 1 2 1 1 1 1 1 0 0 0 0 0 0 0 0 0 0 0 0 0 0 0 0 0 0 0 0 0 0 0 0 0
1 1 1 1 0 0 0 0 0 1 1 1 1 2 2 2 1 1 1 0 0 0 0 0 0 0 0 0 0 0 0 0 0 0 0 0 0 0 0 0 0 0 0
1 1 1 0 0 0 0 0 0 0 0 1 1 1 1 2 2 2 1 1 1 0 0 0 0 0 0 0 0 0 0 0 0 0 0 0 0 0 0 0 0 0 0
2 1 1 0 0 0 0 0 0 0 0 0 0 1 1 1 1 2 1 1 1 1 0 0 0 0 0 0 0 0 0 0 0 0 0 0 0 0 0 0 0 0 0
1 1 0 0 0 0 0 0 0 0 0 0 0 1 0 1 1 1 1 1 1 1 1 0 0 0 0 0 0 0 0 0 0 0 0 0 0 0 0 0 0 0 0
0 0 0 0 0 0 0 0 0 0 0 0 0 0 0 0 0 1 1 1 0 0 0 0 0 0 0 0 0 0 0 0 0 0 0 0 0 0 0 0 0 0 0
0 0 0 0 0 0 0 0 0 0 0 0 0 0 0 0 0 0 1 1 1 0 0 0 0 0 0 0 0 0 0 0 0 0 0 0 0 0 0 0 0 0 0
0 0 0 0 0 0 0 0 0 0 0 0 0 0 0 0 0 0 0 1 1 1 0 0 0 0 0 0 0 0 0 0 0 0 0 0 0 0 0 0 0 0 0
0 0 0 0 0 0 0 0 0 0 0 0 0 0 0 0 0 0 0 1 1 1 0 0 0 0 0 0 0 0 0 0 0 0 0 0 0 0 0 0 0 0 0
Wind_Speed
3 3 2 2 2 2 2 2 2 2 2 2 2 2 2 2 2 1 1 2 2 2 2 3 3 3 3 3 4 5 5 5 6 6 6 5 5 5 5 5 4 4 4
4 3 3 2 2 2 2 2 2 2 2 2 2 2 2 2 1 1 1 1 1 1 2 2 3 3 3 4 4 5 5 5 5 5 5 5 6 6 5 5 4 3 3
4 3 3 2 2 2 3 2 2 2 2 2 1 1 1 1 1 1 1 0 0 1 2 2 3 2 3 4 4 5 6 6 6 5 6 6 6 5 5 5 4 3 3
4 4 3 2 2 2 2 2 2 2 2 1 1 0 0 0 1 1 1 0 0 1 1 2 3 3 3 4 4 5 6 6 6 6 6 6 6 6 6 5 5 4 4
5 4 3 2 3 3 2 2 2 2 2 1 1 0 0 0 1 1 1 1 2 1 1 2 3 4 4 5 5 5 6 6 6 6 6 6 7 7 6 6 5 5 4
4 4 3 3 3 3 2 2 3 2 2 1 1 0 1 1 1 1 2 2 2 2 2 2 2 3 4 5 5 5 5 6 6 7 7 6 6 6 6 5 5 5 5
4 4 3 3 3 3 3 3 3 2 1 1 1 1 2 1 1 1 2 2 2 2 2 2 2 2 2 4 5 5 6 6 6 7 7 7 6 6 6 6 6 6 6
3 4 4 4 4 3 3 3 3 2 1 1 2 1 1 2 2 1 1 2 2 2 2 2 2 2 3 2 3 5 6 6 7 7 7 7 7 7 8 8 8 8 7
3 3 3 3 3 3 3 3 3 3 2 1 1 2 2 2 2 2 2 2 2 2 3 2 3 3 4 3 3 5 6 5 7 7 7 7 7 8 9 9 9 8 8
2 3 4 4 4 3 3 3 3 2 3 2 1 1 1 2 2 1 2 1 2 3 3 3 4 4 4 3 4 6 6 6 6 7 7 7 6 7 8 9 9 9 9
3 3 4 4 4 3 3 3 3 3 2 2 2 1 1 1 1 2 2 2 2 2 3 4 3 3 4 4 4 5 6 6 6 7 7 8 8 7 8 9 9 9 10
1 2 3 3 3 3 3 3 3 3 3 3 2 2 2 2 2 2 3 2 3 3 3 3 3 3 3 4 5 7 7 7 6 6 7 8 8 8 8 9 9 10 11
1 2 2 2 2 3 3 3 3 3 3 3 3 3 3 3 2 2 2 2 2 2 2 2 3 3 3 2 4 7 7 6 6 6 7 7 8 8 8 9 9 10 10
3 3 3 3 3 3 3 3 2 3 2 3 4 3 3 3 3 3 3 2 2 2 2 3 2 2 2 2 3 5 4 5 5 6 6 6 7 7 8 8 8 8 8
2 3 3 3 3 3 3 3 2 3 3 3 3 4 3 3 3 3 3 3 3 2 3 2 2 2 2 2 3 2 3 4 5 5 6 6 6 6 7 7 7 7 7
2 2 3 3 3 3 3 3 3 3 3 3 3 3 3 3 2 3 3 3 3 3 3 2 2 2 2 2 2 2 3 4 5 6 6 6 7 6 6 6 7 7 8
3 3 3 3 3 3 3 3 3 3 3 3 3 4 4 3 3 3 3 3 3 3 3 2 2 2 2 2 2 2 2 3 3 5 6 7 7 7 7 7 7 8 8
3 3 3 3 4 4 4 4 4 4 4 4 4 4 5 3 3 3 2 3 3 2 3 3 2 1 2 2 2 2 2 2 3 4 5 6 6 6 6 7 7 8 8
3 3 3 4 4 4 4 4 4 4 4 5 5 5 5 4 4 3 3 3 2 2 2 2 2 1 1 1 1 2 2 2 3 3 3 4 4 5 5 5 6 7 7
3 3 3 4 4 4 4 4 4 4 4 4 4 5 5 5 5 5 4 4 3 2 2 2 2 1 2 1 1 1 2 2 3 3 3 3 4 5 5 5 6 6 7
3 3 3 3 3 3 4 4 4 4 4 4 4 5 5 6 7 5 4 4 4 3 2 2 2 2 2 1 2 1 2 2 3 2 2 2 2 3 3 5 6 7 7
2 2 3 3 3 3 4 6 5 4 4 4 4 4 4 5 6 7 7 7 7 5 4 3 3 3 3 3 2 2 2 1 2 1 2 3 2 3 3 3 5 7 7
2 2 3 3 3 4 6 6 6 4 4 4 5 4 4 4 4 4 4 5 6 7 8 6 5 5 5 4 3 3 3 3 3 2 1 3 2 3 4 4 6 7 7
2 3 3 4 4 4 5 5 5 4 4 4 5 5 5 5 4 4 4 3 4 4 6 5 6 6 6 5 5 4 3 3 3 3 3 3 3 3 4 4 6 7 7
2 3 3 3 4 4 5 5 4 2 3 4 4 5 5 5 6 5 4 4 4 3 4 5 6 6 6 6 5 3 2 2 3 2 3 3 3 3 3 4 4 6 7
3 3 3 3 4 4 5 5 4 2 3 3 3 4 6 6 6 6 5 5 5 4 3 2 2 3 4 5 6 6 5 3 3 3 3 3 2 2 3 2 3 3 4
Wind_Direction
145 140 136 123 115 113 117 116 115 112 108 106 122 133 141 145 147 156 160 155 155 165 176 181 181 185 192 196 194 191 192 192 190 192 192 184 180 181 183 182 183 188 191
147 150 143 134 132 137 133 133 129 121 106 104 105 120 135 143 148 152 147 158 165 186 196 191 197 199 203 207 204 201 198 196 195 195 195 193 192 190 188 185 185 187 189
150 151 149 151 153 140 130 118 106 102 110 102 95 111 132 141 148 153 142 163 250 232 227 215 204 206 221 224 216 214 208 202 202 204 204 199 196 192 192 189 188 188 184
157 148 156 163 155 139 129 126 115 108 102 102 108 97 109 135 155 169 163 206 251 273 259 242 232 235 235 235 229 225 215 211 205 204 206 202 199 197 196 194 197 194 190
161 154 163 165 148 136 136 146 126 133 132 124 131 65 344 266 251 208 197 222 231 248 264 265 249 244 243 243 239 232 224 219 214 208 209 208 204 198 199 200 203 200 197
162 154 156 159 150 139 141 141 132 122 135 140 122 360 327 293 259 231 232 235 238 241 250 264 269 261 249 250 243 230 226 228 223 216 215 210 204 201 203 207 211 214 209
163 160 158 152 152 150 156 152 139 127 131 128 93 9 342 330 283 247 240 240 246 248 248 254 255 256 262 259 252 237 231 229 228 225 222 218 210 205 210 217 220 221 220
160 165 159 157 155 145 144 148 142 139 138 132 130 106 358 335 313 260 247 231 243 249 246 251 250 245 250 256 260 246 236 234 231 228 229 225 220 216 214 216 224 227 229
170 163 163 153 151 151 160 164 154 147 156 145 135 145 158 227 288 301 259 245 250 251 256 262 249 245 241 244 256 254 249 246 238 232 229 230 229 229 227 224 226 230 230
173 174 170 167 162 159 164 174 158 153 149 169 172 191 189 170 178 284 299 272 264 256 257 259 256 253 248 245 246 251 249 246 245 237 232 230 231 232 231 230 231 232 232
183 183 176 169 166 167 174 175 166 162 166 175 184 179 184 186 183 194 265 293 294 262 255 254 255 251 247 245 246 249 249 244 244 242 235 234 234 236 234 236 238 239 239
189 188 176 169 173 174 182 184 181 175 182 181 191 190 186 194 199 194 226 255 277 281 271 256 247 247 245 243 247 252 250 242 239 243 242 240 239 241 241 242 243 244 245
200 207 182 175 182 187 188 177 181 191 190 191 202 212 213 222 203 192 203 233 265 285 284 264 246 251 255 252 253 254 249 241 235 239 243 241 241 242 244 244 244 247 248
201 193 187 188 194 189 187 180 188 203 198 207 215 215 222 233 217 206 197 192 248 276 269 266 271 248 256 255 262 255 250 240 237 239 241 240 243 245 247 245 243 245 244
195 186 187 194 197 192 191 183 196 209 201 211 219 220 227 235 227 224 212 200 199 244 262 259 258 262 261 256 267 263 255 243 238 241 241 242 248 247 244 240 239 241 241
193 180 194 200 203 201 195 188 199 205 202 219 219 220 231 235 234 225 217 216 211 216 242 247 253 275 275 271 278 266 260 260 249 247 243 242 242 242 241 239 239 239 240
196 198 204 206 206 203 197 192 206 204 209 228 231 227 240 234 232 229 217 214 214 208 231 261 264 279 271 279 299 288 271 260 262 254 251 247 242 240 241 244 241 239 239
206 207 205 207 207 204 197 196 211 216 218 228 236 235 245 236 230 224 208 210 214 210 211 247 271 283 275 271 283 290 289 274 269 257 253 250 243 240 242 245 246 241 236
209 211 204 210 213 209 205 208 211 221 227 231 235 237 239 224 231 225 213 213 214 212 210 217 251 265 274 275 296 298 303 298 289 275 265 257 256 249 244 246 249 242 239
207 211 215 219 218 216 214 213 214 221 231 237 237 236 234 225 226 221 218 214 203 198 191 195 223 253 262 263 244 269 296 303 294 289 290 279 270 257 251 249 249 244 241
215 212 212 228 226 219 217 213 216 223 227 240 245 242 238 232 225 217 213 208 198 199 199 204 220 236 250 239 242 239 262 291 284 268 278 281 276 263 254 251 250 247 243
219 214 218 227 234 237 226 223 219 223 227 231 244 252 251 242 234 223 217 212 203 199 202 206 218 224 240 235 235 234 243 273 283 269 272 279 267 264 262 253 253 249 244
207 226 234 227 234 240 235 231 228 223 229 234 238 245 252 248 236 218 213 214 219 218 206 200 212 225 226 219 209 224 229 237 251 264 253 269 261 265 267 263 259 250 242
212 224 231 228 232 246 240 234 233 225 233 239 238 235 238 247 235 210 206 215 231 228 216 210 214 224 226 219 211 220 230 247 263 247 220 252 258 262 275 268 259 254 250
233 234 235 228 233 251 242 237 228 217 232 247 245 238 235 240 235 207 198 216 239 252 238 221 222 228 229 224 207 194 207 232 269 262 208 235 254 269 271 264 259 255 258
234 239 245 243 239 248 244 236 220 210 227 247 253 247 237 233 227 206 200 205 226 242 239 235 234 242 236 229 214 208 207 217 244 258 208 218 247 262 276 259 266 269 264